TimeEST,TemperatureF,Dew PointF,Humidity,Sea Level PressureIn,VisibilityMPH,Wind Direction,Wind SpeedMPH,Gust SpeedMPH,PrecipitationIn,Events,Conditions,WindDirDegrees,DateUTC
12:15 AM,20.8,-0.0,40,30.45,10.0,North,11.5,17.3,N/A,,Clear,350,2014-01-24 05:15:00
12:35 AM,20.5,-0.6,40,30.45,10.0,North,10.4,16.1,N/A,,Scattered Clouds,350,2014-01-24 05:35:00
12:55 AM,19.4,0.3,43,30.46,10.0,NNE,10.4,18.4,N/A,,Scattered Clouds,20,2014-01-24 05:55:00
1:15 AM,19.0,-0.8,42,30.46,10.0,North,11.5,-,N/A,,Clear,350,2014-01-24 06:15:00
1:35 AM,18.3,-1.5,42,30.47,10.0,North,10.4,-,N/A,,Clear,360,2014-01-24 06:35:00
1:55 AM,17.6,-2.2,42,30.49,10.0,North,6.9,16.1,N/A,,Clear,350,2014-01-24 06:55:00
2:15 AM,17.2,-3.6,40,30.50,10.0,NNW,11.5,19.6,N/A,,Clear,340,2014-01-24 07:15:00
2:35 AM,16.7,-3.8,40,30.51,10.0,North,9.2,-,N/A,,Clear,350,2014-01-24 07:35:00
2:55 AM,16.3,-3.8,41,30.51,10.0,North,11.5,16.1,N/A,,Clear,350,2014-01-24 07:55:00
3:15 AM,16.2,-3.6,42,30.52,10.0,North,9.2,18.4,N/A,,Clear,350,2014-01-24 08:15:00
3:35 AM,15.6,-4.0,42,30.53,10.0,North,11.5,17.3,N/A,,Clear,350,2014-01-24 08:35:00
3:55 AM,14.9,-4.0,43,30.54,10.0,North,8.1,-,N/A,,Clear,360,2014-01-24 08:55:00
4:15 AM,14.4,-3.6,45,30.54,10.0,North,8.1,-,N/A,,Clear,350,2014-01-24 09:15:00
4:35 AM,14.0,-3.5,46,30.55,10.0,North,4.6,-,N/A,,Clear,350,2014-01-24 09:35:00
4:55 AM,13.3,-3.3,48,30.56,10.0,Calm,Calm,-,N/A,,Clear,0,2014-01-24 09:55:00
5:15 AM,13.1,-4.4,46,30.56,10.0,NNW,4.6,-,N/A,,Clear,330,2014-01-24 10:15:00
5:35 AM,12.6,-4.7,46,30.57,10.0,NNW,5.8,-,N/A,,Clear,340,2014-01-24 10:35:00
5:55 AM,12.0,-5.3,46,30.58,10.0,NNW,6.9,-,N/A,,Clear,330,2014-01-24 10:55:00
6:15 AM,11.8,-6.3,44,30.59,10.0,NNW,6.9,-,N/A,,Clear,330,2014-01-24 11:15:00
6:35 AM,11.3,-6.3,45,30.60,10.0,NNW,4.6,-,N/A,,Clear,340,2014-01-24 11:35:00
6:55 AM,10.9,-6.3,46,30.61,10.0,NNW,4.6,-,N/A,,Clear,340,2014-01-24 11:55:00
7:15 AM,10.4,-6.0,48,30.62,10.0,Calm,Calm,-,N/A,,Clear,0,2014-01-24 12:15:00
7:35 AM,10.2,-5.8,49,30.62,10.0,Calm,Calm,-,N/A,,Clear,0,2014-01-24 12:35:00
7:55 AM,9.9,-5.1,51,30.62,10.0,Calm,Calm,-,N/A,,Clear,0,2014-01-24 12:55:00
8:15 AM,10.4,-4.9,50,30.62,10.0,NNW,3.5,-,N/A,,Clear,340,2014-01-24 13:15:00
8:35 AM,11.1,-4.7,49,30.61,10.0,NW,3.5,-,N/A,,Clear,310,2014-01-24 13:35:00
8:55 AM,11.7,-5.3,47,30.62,10.0,NNW,6.9,-,N/A,,Clear,330,2014-01-24 13:55:00
9:15 AM,12.2,-5.6,45,30.61,10.0,North,5.8,-,N/A,,Clear,10,2014-01-24 14:15:00
9:35 AM,12.6,-6.2,43,30.61,10.0,NW,4.6,-,N/A,,Clear,320,2014-01-24 14:35:00
9:55 AM,13.1,-6.0,42,30.60,10.0,Calm,Calm,-,N/A,,Clear,0,2014-01-24 14:55:00
10:15 AM,14.7,-6.9,38,30.60,10.0,NNW,8.1,-,N/A,,Clear,340,2014-01-24 15:15:00
10:35 AM,15.8,-6.7,37,30.61,10.0,North,5.8,-,N/A,,Clear,10,2014-01-24 15:35:00
10:55 AM,16.2,-6.9,36,30.60,10.0,NW,4.6,-,N/A,,Clear,310,2014-01-24 15:55:00
11:15 AM,17.8,-6.3,34,30.60,10.0,North,4.6,-,N/A,,Clear,10,2014-01-24 16:15:00
11:35 AM,18.1,-7.1,33,30.59,10.0,NW,4.6,-,N/A,,Clear,310,2014-01-24 16:35:00
11:55 AM,18.5,-7.6,31,30.57,10.0,NNW,4.6,-,N/A,,Clear,340,2014-01-24 16:55:00
12:15 PM,19.2,-7.2,31,30.55,10.0,Calm,Calm,-,N/A,,Clear,0,2014-01-24 17:15:00
12:35 PM,20.1,-8.5,28,30.54,10.0,North,3.5,-,N/A,,Clear,10,2014-01-24 17:35:00
12:55 PM,20.5,-7.6,29,30.52,10.0,Calm,Calm,-,N/A,,Clear,0,2014-01-24 17:55:00
1:15 PM,21.4,-8.1,27,30.52,10.0,Calm,Calm,-,N/A,,Clear,0,2014-01-24 18:15:00
1:35 PM,21.7,-8.0,27,30.50,10.0,Calm,Calm,-,N/A,,Clear,0,2014-01-24 18:35:00
1:55 PM,22.6,-8.0,26,30.49,10.0,WSW,3.5,-,N/A,,Clear,240,2014-01-24 18:55:00
2:15 PM,23.2,-8.7,24,30.49,10.0,Calm,Calm,-,N/A,,Clear,0,2014-01-24 19:15:00
2:35 PM,23.4,-8.7,24,30.48,10.0,Calm,Calm,-,N/A,,Clear,0,2014-01-24 19:35:00
2:55 PM,23.9,-8.0,25,30.47,10.0,North,3.5,-,N/A,,Clear,350,2014-01-24 19:55:00
3:15 PM,23.5,-9.9,23,30.46,10.0,Calm,Calm,-,N/A,,Clear,0,2014-01-24 20:15:00
3:35 PM,24.6,-10.1,22,30.44,10.0,SSW,6.9,-,N/A,,Clear,210,2014-01-24 20:35:00
3:55 PM,23.9,-9.8,23,30.44,10.0,Calm,Calm,-,N/A,,Clear,0,2014-01-24 20:55:00
4:15 PM,24.8,-10.5,21,30.42,10.0,Calm,Calm,-,N/A,,Clear,0,2014-01-24 21:15:00
4:35 PM,25.0,-9.2,22,30.42,10.0,SSW,6.9,-,N/A,,Clear,200,2014-01-24 21:35:00
4:55 PM,24.8,-9.9,22,30.41,10.0,SSW,3.5,-,N/A,,Clear,210,2014-01-24 21:55:00
5:15 PM,24.8,-8.9,23,30.41,10.0,SW,4.6,-,N/A,,Clear,220,2014-01-24 22:15:00
5:35 PM,24.1,-9.0,23,30.40,10.0,SSW,4.6,-,N/A,,Clear,210,2014-01-24 22:35:00
5:55 PM,23.0,-8.5,25,30.39,10.0,Calm,Calm,-,N/A,,Clear,0,2014-01-24 22:55:00
6:15 PM,21.9,-5.4,30,30.39,10.0,Calm,Calm,-,N/A,,Clear,0,2014-01-24 23:15:00
6:35 PM,20.7,-6.2,31,30.39,10.0,Calm,Calm,-,N/A,,Clear,0,2014-01-24 23:35:00
6:55 PM,19.9,-3.6,35,30.38,10.0,Calm,Calm,-,N/A,,Clear,0,2014-01-24 23:55:00
7:15 PM,19.8,-5.1,33,30.37,10.0,Calm,Calm,-,N/A,,Clear,0,2014-01-25 00:15:00
7:35 PM,19.2,-2.6,38,30.37,10.0,Calm,Calm,-,N/A,,Clear,0,2014-01-25 00:35:00
7:55 PM,19.0,-1.8,40,30.36,10.0,Calm,Calm,-,N/A,,Clear,0,2014-01-25 00:55:00
8:15 PM,18.0,0.9,47,30.35,10.0,Calm,Calm,-,N/A,,Clear,0,2014-01-25 01:15:00
8:35 PM,18.7,-2.2,40,30.34,10.0,Calm,Calm,-,N/A,,Clear,0,2014-01-25 01:35:00
8:55 PM,20.3,-6.3,31,30.33,10.0,South,4.6,-,N/A,,Clear,180,2014-01-25 01:55:00
9:15 PM,20.7,-5.6,31,30.33,10.0,South,5.8,-,N/A,,Clear,180,2014-01-25 02:15:00
9:40 PM,20.7,-7.1,29,30.32,10.0,South,4.6,-,N/A,,Clear,180,2014-01-25 02:40:00
9:55 PM,20.7,-6.9,30,30.32,10.0,South,4.6,-,N/A,,Clear,180,2014-01-25 02:55:00
10:15 PM,20.8,-7.2,29,30.30,10.0,South,6.9,-,N/A,,Clear,180,2014-01-25 03:15:00
10:35 PM,21.0,-7.4,28,30.29,10.0,South,8.1,-,N/A,,Clear,190,2014-01-25 03:35:00
10:55 PM,21.2,-7.6,28,30.29,10.0,South,5.8,-,N/A,,Clear,190,2014-01-25 03:55:00
11:15 PM,21.0,-7.6,28,30.28,10.0,South,5.8,-,N/A,,Clear,190,2014-01-25 04:15:00
11:35 PM,20.7,-6.5,30,30.28,10.0,South,8.1,-,N/A,,Clear,190,2014-01-25 04:35:00
11:55 PM,20.5,-6.5,30,30.27,10.0,SSW,9.2,-,N/A,,Clear,210,2014-01-25 04:55:00